Simultaneous Nadir Overpasses (SNOs) Predictions

Prediction of SNOs between GOES-16 and AQUA Satellite Orbit:

Table of predicted SNOs for the next 14.0 days since TLE Epoch: 11/13/2020
Index Date Time (GOES-16) GOES-16 Lat,Lon AQUA Lat,Lon Distance(km) Time Diff (sec)
1 11/14/2020 06:26:01 0.01, -75.16 -0.55, -72.39 314.66 80
2 11/14/2020 18:44:45 -0.01, -75.17 -0.53, -77.59 275.17 80
3 11/16/2020 18:35:13 -0.01, -75.12 0.09, -74.63 56.32 80
4 11/18/2020 18:23:01 -0.01, -75.08 0.71, -71.67 388.19 80
5 11/19/2020 06:44:17 0.01, -75.06 0.37, -76.83 200.91 80
6 11/21/2020 06:29:25 0.01, -75.02 -0.26, -73.87 131.88 80
7 11/21/2020 18:50:47 -0.00, -75.03 -0.88, -79.05 457.80 80
8 11/23/2020 06:17:13 0.01, -75.00 -0.89, -70.91 465.57 80
9 11/23/2020 18:38:35 -0.00, -75.01 -0.25, -76.09 123.80 80
10 11/25/2020 18:29:04 -0.00, -74.99 0.39, -73.14 211.00 80
11 11/26/2020 06:50:19 0.00, -74.98 0.68, -78.30 376.87 80
